Flag for Australia Weather past 2 weeks in Alice Springs, Northern Territory, Australia

Now
73 °F

Sunny.


Feels Like: 77 °F
Forecast: 83 / 104 °F
Wind: 2 mph from Northwest

Location: Alice Springs Aerodrome

Current Time: Feb 28, 2015 at 7:34:42 AM

Latest Report: Feb 28, 2015 at 6:30 AM


Visibility: 10 mi

Pressure: 29.77 "Hg

Humidity: 41%

Dew point: 48 °F

Location of Alice SpringsLocation

Historic Weather in Alice Springs — Graph

°F

Alice Springs temperature yesterday

Maximum temperature yesterday: 102 °F (at 2:30 PM)
Minimum temperature yesterday: 70 °F (at 6:30 AM)
Average temperature yesterday: 88 °F

Past Weeks' High & Low Weather Summary

 TemperatureHumidityPressure
High102 °F (Feb 16, 4:00 PM)78% (Feb 23, 5:30 AM)30.04 "Hg (Feb 23, 5:30 AM)
Low66 °F (Feb 21, 6:00 AM)10% (Feb 27, 10:00 AM)29.68 "Hg (Feb 27, 4:30 PM)
Average86 °F31%29.88 "Hg
* Reported Feb 13 5:30 AM — Feb 28 6:00 AM, Alice Springs, Weather by CustomWeather, © 2015

Note: Actual official high and low records may vary slightly from our data, if they occured in-between our weather recording intervals... More about our weather records

Advertising

Alice Springs weather history for previous 24 hours

 ConditionsComfort  
Time TempWeatherWind HumidityBarometerVisibility
6:00 AM
Sat, Feb 28
73 °FSunny.1 mph33%29.74 "Hg10 mi
5:30 AM73 °FClear.7 mph36%29.74 "HgN/A
5:00 AM72 °FClear.5 mph41%29.74 "HgN/A
4:30 AM73 °FClear.No wind41%29.74 "HgN/A
4:00 AM73 °FPassing clouds.3 mph38%29.71 "HgN/A
3:30 AM75 °FClear.6 mph36%29.71 "HgN/A
3:00 AM75 °FClear.No wind34%29.71 "HgN/A
2:30 AM77 °FClear.No wind32%29.74 "HgN/A
2:00 AM77 °FClear.No wind28%29.74 "HgN/A
1:30 AM79 °FClear.3 mph30%29.74 "HgN/A
1:00 AM81 °FClear.6 mph21%29.74 "HgN/A
12:30 AM82 °FClear.8 mph21%29.74 "HgN/A
12:00 AM82 °FClear.8 mph21%29.77 "HgN/A
11:30 PM
Fri, Feb 27
82 °FClear.8 mph25%29.77 "HgN/A
10:30 PM84 °FClear.7 mph25%29.74 "HgN/A
10:00 PM84 °FClear.7 mph27%29.74 "HgN/A
9:30 PM86 °FClear.8 mph25%29.74 "HgN/A
9:00 PM90 °FClear.7 mph21%29.74 "HgN/A
8:30 PM91 °FClear.7 mph20%29.74 "HgN/A
8:00 PM91 °FClear.6 mph21%29.71 "HgN/A
7:30 PM91 °FClear.7 mph23%29.71 "HgN/A
7:00 PM97 °FClear.6 mph17%29.71 "HgN/A
6:30 PM99 °FSunny.9 mph15%29.68 "HgN/A
6:00 PM100 °FSunny.10 mph14%29.71 "HgN/A
5:30 PM100 °FSunny.9 mph14%29.68 "HgN/A
5:00 PM102 °FPassing clouds.8 mph15%29.68 "HgN/A
4:30 PM102 °FPassing clouds.9 mph14%29.68 "HgN/A
4:00 PM102 °FPassing clouds.9 mph14%29.71 "HgN/A
3:30 PM100 °FPassing clouds.10 mph15%29.71 "HgN/A
3:00 PM102 °FDuststorm.12 mph16%29.71 "HgN/A
2:30 PM102 °FPassing clouds.7 mph14%29.71 "HgN/A
1:30 PM99 °FSunny.3 mph13%29.74 "Hg10 mi
1:00 PM100 °FPassing clouds.5 mph11%29.77 "HgN/A
12:30 PM99 °FSunny.6 mph13%29.80 "Hg10 mi
12:00 PM97 °FSunny.7 mph13%29.80 "Hg10 mi
11:30 AM95 °FPassing clouds.8 mph11%29.80 "HgN/A
11:00 AM91 °FPassing clouds.7 mph11%29.83 "HgN/A
10:30 AM91 °FSunny.8 mph11%29.83 "Hg10 mi
10:00 AM91 °FSunny.9 mph10%29.86 "Hg10 mi
9:30 AM90 °FSunny.14 mph11%29.86 "Hg10 mi
9:00 AM86 °FSunny.10 mph17%29.83 "Hg10 mi
8:30 AM84 °FSunny.7 mph19%29.83 "Hg10 mi
8:00 AM82 °FSunny.6 mph20%29.83 "Hg10 mi
7:30 AM77 °FSunny.No wind39%29.83 "Hg10 mi
Weather by CustomWeather, © 2015

See weather overviewHow to use our weather pages